Overview Statistics Trail Chart Weather Telemetry Raw packets
 

This is the latest recevied weather packets stored in our database for station/object W5GMO. If no packets are shown the sender has not sent any weather packets the latest 10 day(s).

<< 60 61 62 63 64 65 66 >>
Time Temp. Humidity Pressure Rain* Wind** Luminosity Snow
1788223694 27.78° C 1% 1018.1 hPa 0 mm - 0 W/m² -
1788223389 27.78° C 1% 1018.3 hPa 0 mm - 0 W/m² -
1788223089 27.78° C 1% 1018.3 hPa 0 mm - 0 W/m² -
1788222784 27.78° C 1% 1018.3 hPa 0 mm - 0 W/m² -
1788222482 27.78° C 1% 1018.1 hPa 0 mm - 0 W/m² -
1788222178 27.78° C 1% 1017.9 hPa 0 mm - 0 W/m² -
1788221872 27.78° C 1% 1018 hPa 0 mm - 0 W/m² -
1788221568 27.78° C 1% 1018 hPa 0 mm - 0 W/m² -
1788221263 28.33° C 1% 1018.2 hPa 0 mm - 0 W/m² -
1788220959 28.33° C 1% 1018 hPa 0 mm - 0 W/m² -
1788220657 28.33° C 1% 1017.9 hPa 0 mm - 0 W/m² -
1788220353 28.33° C 1% 1018.1 hPa 0 mm - 0 W/m² -
1788220053 28.33° C 1% 1017.9 hPa 0 mm - 1 W/m² -
1788219753 28.89° C 1% 1018 hPa 0 mm - 2 W/m² -
1788219448 29.44° C 1% 1017.9 hPa 0 mm - 4 W/m² -
1788219144 29.44° C 1% 1018.1 hPa 0 mm - 7 W/m² -
1788218844 29.44° C 1% 1018 hPa 0 mm - 12 W/m² -
1788218540 29.44° C 1% 1018 hPa 0 mm - 17 W/m² -
1788218236 29.44° C 1% 1018 hPa 0 mm - 23 W/m² -
1788217932 30° C 1% 1018 hPa 0 mm - 33 W/m² -
1788217632 29.44° C 1% 1017.9 hPa 0 mm - 35 W/m² -
1788217327 29.44° C 1% 1018.2 hPa 0 mm - 30 W/m² -
1788217026 29.44° C 1% 1018.1 hPa 0 mm - 35 W/m² -
1788216721 29.44° C 1% 1018.2 hPa 0 mm - 43 W/m² -
1788216416 29.44° C 1% 1018.2 hPa 0 mm - 51 W/m² -

* Rain latest hour (hover to see other rain measurements)
** Current wind speed in m/s (hover to see current wind gust speed)